TimeWET,TemperatureF,Dew PointF,Humidity,Sea Level PressureIn,VisibilityMPH,Wind Direction,Wind SpeedMPH,Gust SpeedMPH,PrecipitationIn,Events,Conditions,WindDirDegrees,DateUTC
12:00 AM,49,35,48,30.22,6,East,5.8,,,,,90,2013-02-04 00:00:00
12:00 AM,48.2,35.6,62,30.18,-9999.0,East,5.8,-,N/A,,Clear,90,2013-02-04 00:00:00
12:30 AM,46.4,35.6,66,30.18,-9999.0,East,4.6,-,N/A,,Clear,80,2013-02-04 00:30:00
1:00 AM,48.2,35.6,62,30.18,-9999.0,SE,3.5,-,N/A,,Clear,130,2013-02-04 01:00:00
1:30 AM,48.2,37.4,66,30.18,-9999.0,SE,3.5,-,N/A,,Clear,140,2013-02-04 01:30:00
2:00 AM,44.6,35.6,71,30.18,-9999.0,Variable,1.2,-,N/A,,Clear,0,2013-02-04 02:00:00
2:30 AM,46.4,35.6,66,30.18,-9999.0,NNE,2.3,-,N/A,,Clear,20,2013-02-04 02:30:00
3:00 AM,45,36,60,30.22,6,NNE,3.5,,,,,30,2013-02-04 03:00:00
3:00 AM,46.4,35.6,66,30.18,-9999.0,NNE,3.5,-,N/A,,Clear,30,2013-02-04 03:00:00
3:30 AM,44.6,35.6,71,30.18,-9999.0,East,4.6,-,N/A,,Clear,90,2013-02-04 03:30:00
4:00 AM,42.8,35.6,76,30.18,-9999.0,East,5.8,-,N/A,,Clear,80,2013-02-04 04:00:00
4:30 AM,44.6,37.4,76,30.18,-9999.0,SE,4.6,-,N/A,,Clear,140,2013-02-04 04:30:00
5:00 AM,41.0,35.6,81,30.18,-9999.0,Variable,2.3,-,N/A,,Clear,0,2013-02-04 05:00:00
5:30 AM,39.2,33.8,81,30.18,-9999.0,West,5.8,-,N/A,,Clear,270,2013-02-04 05:30:00
5:46 AM,38,34,80,30.25,6,WSW,5.8,,,,,240,2013-02-04 05:46:00
6:00 AM,39.2,33.8,81,30.18,-9999.0,WSW,5.8,-,N/A,,Clear,240,2013-02-04 06:00:00
6:30 AM,39.2,35.6,87,30.21,-9999.0,SSW,3.5,-,N/A,,Clear,200,2013-02-04 06:30:00
7:00 AM,41.0,35.6,81,30.21,-9999.0,Variable,2.3,-,N/A,,Clear,0,2013-02-04 07:00:00
7:30 AM,41.0,35.6,81,30.21,-9999.0,Calm,Calm,-,N/A,,Clear,0,2013-02-04 07:30:00
8:00 AM,44.6,35.6,71,30.21,-9999.0,Calm,Calm,-,N/A,,Clear,0,2013-02-04 08:00:00
8:30 AM,51.8,39.2,62,30.24,-9999.0,NE,1.2,-,N/A,,Clear,50,2013-02-04 08:30:00
9:00 AM,53,38,47,30.26,6,East,2.3,,,,Clear,90,2013-02-04 09:00:00
9:00 AM,53.6,39.2,58,30.24,5.6,Variable,2.3,-,N/A,,Unknown,0,2013-02-04 09:00:00
9:30 AM,53.6,39.2,58,30.24,-9999.0,East,3.5,-,N/A,,Clear,100,2013-02-04 09:30:00
11:00 AM,60.8,41.0,48,30.24,-9999.0,Variable,2.3,-,N/A,,Clear,0,2013-02-04 11:00:00
11:30 AM,64.4,39.2,40,30.24,6.2,Variable,2.3,-,N/A,,Unknown,0,2013-02-04 11:30:00
12:00 PM,68,42,27,30.21,6,SE,2.3,,,,,140,2013-02-04 12:00:00
12:00 PM,68.0,41.0,37,30.24,-9999.0,Variable,2.3,-,N/A,,Clear,0,2013-02-04 12:00:00
12:30 PM,69.8,41.0,35,30.24,-9999.0,Variable,2.3,-,N/A,,Clear,0,2013-02-04 12:30:00
1:00 PM,71.6,41.0,33,30.21,-9999.0,Variable,1.2,-,N/A,,Clear,0,2013-02-04 13:00:00
1:30 PM,73.4,39.2,29,30.21,-9999.0,WNW,6.9,-,N/A,,Clear,290,2013-02-04 13:30:00
2:00 PM,73.4,39.2,29,30.21,-9999.0,West,8.1,-,N/A,,Clear,280,2013-02-04 14:00:00
2:30 PM,75.2,37.4,25,30.21,-9999.0,West,9.2,-,N/A,,Clear,280,2013-02-04 14:30:00
3:00 PM,75,37,15,30.15,6,West,9.2,,,,,260,2013-02-04 15:00:00
3:00 PM,75.2,37.4,25,30.21,-9999.0,West,9.2,-,N/A,,Clear,270,2013-02-04 15:00:00
3:30 PM,75.2,35.6,24,30.21,-9999.0,West,11.5,-,N/A,,Clear,280,2013-02-04 15:30:00
4:00 PM,73.4,35.6,25,30.21,-9999.0,West,10.4,-,N/A,,Clear,280,2013-02-04 16:00:00
4:30 PM,73.4,35.6,25,30.21,-9999.0,WNW,8.1,-,N/A,,Clear,290,2013-02-04 16:30:00
5:00 PM,71.6,35.6,27,30.21,-9999.0,NW,9.2,-,N/A,,Clear,310,2013-02-04 17:00:00
5:30 PM,69.8,35.6,28,30.21,-9999.0,NW,8.1,-,N/A,,Clear,310,2013-02-04 17:30:00
6:00 PM,67,36,21,30.19,6,WNW,6.9,,,,,300,2013-02-04 18:00:00
6:00 PM,66.2,37.4,35,30.21,-9999.0,WNW,6.9,-,N/A,,Clear,290,2013-02-04 18:00:00
6:30 PM,64.4,37.4,37,30.24,-9999.0,WNW,4.6,-,N/A,,Clear,290,2013-02-04 18:30:00
7:00 PM,62.6,37.4,39,30.24,-9999.0,West,6.9,-,N/A,,Clear,280,2013-02-04 19:00:00
7:30 PM,60.8,37.4,42,30.24,-9999.0,West,4.6,-,N/A,,Clear,260,2013-02-04 19:30:00
8:00 PM,59.0,37.4,45,30.27,-9999.0,West,4.6,-,N/A,,Clear,260,2013-02-04 20:00:00
8:30 PM,55.4,37.4,51,30.27,-9999.0,WSW,4.6,-,N/A,,Clear,240,2013-02-04 20:30:00
9:00 PM,60,38,33,30.28,6,SW,8.1,,,,,220,2013-02-04 21:00:00
9:00 PM,59.0,39.2,48,30.27,-9999.0,SW,8.1,-,N/A,,Clear,220,2013-02-04 21:00:00
9:30 PM,59.0,39.2,48,30.30,-9999.0,SW,6.9,-,N/A,,Clear,220,2013-02-04 21:30:00
10:00 PM,59.0,39.2,48,30.30,-9999.0,SW,5.8,-,N/A,,Clear,220,2013-02-04 22:00:00
10:30 PM,55.4,39.2,54,30.30,-9999.0,SW,3.5,-,N/A,,Clear,230,2013-02-04 22:30:00
11:00 PM,57.2,37.4,48,30.30,-9999.0,SSW,5.8,-,N/A,,Clear,210,2013-02-04 23:00:00
11:30 PM,57.2,37.4,48,30.30,-9999.0,SW,5.8,-,N/A,,Clear,220,2013-02-04 23:30:00